Terminal Aerodrome Forecast
Issued by NWS

Home | Current Version | Previous Version | Graphics & Text | Print | Product List | Glossary On
Versions: 1 2 3 4 5 6 7 8 9 10 11 12 13 14 15 16 17 18
000
FTUS43 KABR 170500
TAFMBG
TAF
KMBG 170527Z 1706/1806 05008KT P6SM SCT250
     FM171400 13012KT P6SM SKC=

USA.gov is the U.S. government's official web portal to all federal, state and local government web resources and services.